Wind_Speed
10 10 10 10 12 15 16 16 21 22 22 21 21 19 19 17 13 11 10 11 13 15 17 19 20 20 21 21 22 22 22 21 22 24 26 26 25 26 26 25 24 24 25
11 9 9 7 11 13 15 18 21 25 25 25 22 18 19 18 19 19 18 17 17 17 17 16 16 18 21 22 23 23 23 22 22 24 24 24 25 28 31 33 31 28 26
13 11 9 9 11 13 16 21 22 26 23 29 26 21 16 16 18 19 21 21 22 21 20 20 21 23 24 25 26 25 26 27 28 29 28 26 24 26 29 32 34 33 31
12 12 9 9 13 13 19 22 26 21 26 23 21 21 19 19 21 21 20 23 24 24 26 26 28 30 31 30 31 32 32 33 32 32 31 32 31 30 29 29 30 34 34
11 10 6 8 13 16 16 21 25 24 25 24 22 24 23 23 24 25 25 25 25 26 28 29 32 32 32 33 35 38 40 42 39 40 37 34 33 32 33 30 30 31 33
9 7 6 9 12 13 13 17 20 22 25 30 26 24 24 24 26 25 25 26 28 30 32 35 35 35 35 38 39 41 43 47 49 48 46 43 41 38 35 35 32 33 32
9 5 4 6 7 10 14 14 19 18 22 26 28 22 23 23 25 26 27 31 31 33 34 36 36 37 39 38 38 44 48 51 49 46 43 41 38 39 35 34 35 35 35
9 4 3 5 5 12 17 20 21 22 25 27 29 20 15 20 25 29 31 32 32 35 36 37 38 39 38 41 47 48 46 45 38 36 38 39 40 37 36 34 33 37 38
8 3 2 6 10 13 16 18 19 22 26 28 26 15 15 18 22 31 32 31 34 36 36 38 36 39 42 43 45 45 42 38 38 36 37 38 39 37 35 34 32 31 38
7 3 5 9 12 15 17 22 24 28 29 30 26 24 21 22 23 24 31 33 35 36 37 36 38 42 44 44 44 41 37 34 31 32 36 37 37 36 35 36 32 29 32
4 3 7 10 14 17 21 24 25 30 28 30 12 18 20 23 24 25 28 32 34 37 34 38 42 44 40 38 37 34 30 32 33 32 35 34 36 36 38 36 35 31 31
1 4 6 12 18 21 24 28 29 28 24 17 18 21 20 23 26 30 31 33 35 36 33 39 43 39 35 33 31 32 33 34 35 36 37 35 33 33 34 42 36 38 35
2 4 11 15 18 23 28 37 41 30 19 9 16 17 24 27 29 31 31 33 37 34 34 39 38 35 32 29 30 32 35 38 38 36 36 37 35 36 31 33 28 39 43
2 9 11 14 18 25 33 40 26 23 24 18 12 19 29 31 32 31 32 32 35 33 36 38 36 33 31 30 30 32 36 38 37 36 36 39 40 40 35 31 29 25 31
11 9 11 14 18 25 29 32 34 16 22 17 24 26 28 28 28 29 32 32 33 33 37 39 35 33 32 31 32 32 36 38 40 38 37 39 43 37 33 28 26 28 30
9 9 11 14 20 27 31 32 33 22 22 21 22 25 24 25 27 29 29 33 36 37 39 40 37 34 34 35 35 36 38 40 40 39 37 40 39 33 26 19 15 18 25
9 10 12 17 24 26 31 35 32 25 22 22 22 23 27 30 31 33 36 39 41 41 44 43 39 37 37 39 39 38 37 39 38 38 37 42 35 25 17 13 15 16 19
10 10 13 20 23 26 31 35 32 26 27 27 28 32 36 37 36 37 41 42 42 43 47 46 41 40 40 40 40 39 37 37 39 36 36 37 29 24 16 11 14 14 11
9 13 20 20 22 26 31 35 31 29 31 32 35 37 39 40 40 41 42 43 42 45 48 47 44 42 41 42 42 41 40 40 40 36 35 33 27 24 14 11 13 12 7
13 17 18 21 24 30 33 33 32 32 34 34 35 37 40 41 41 41 42 43 42 46 50 48 44 43 44 44 45 44 41 39 37 34 34 26 21 18 10 11 14 8 3
13 15 20 25 28 32 33 33 30 32 33 35 36 38 39 41 42 40 42 42 43 48 49 47 47 47 49 48 41 37 35 32 31 29 27 20 18 15 16 12 9 6 2
12 16 20 24 30 32 30 30 29 30 33 36 37 36 39 41 40 39 41 42 45 49 48 48 50 51 51 43 38 33 32 30 29 26 19 17 17 17 11 11 10 9 5
12 16 21 23 28 32 28 29 30 30 34 36 37 37 38 40 40 39 41 41 46 48 49 51 50 53 45 38 36 35 34 39 33 26 22 19 20 12 12 9 16 15 9
12 16 21 25 27 30 28 29 29 30 33 35 35 36 38 41 39 40 39 42 47 49 51 52 51 48 40 36 37 37 40 47 35 29 22 19 12 16 15 12 12 13 12
10 14 19 25 31 31 29 28 27 31 33 34 34 35 38 39 38 39 39 42 46 49 51 49 50 45 37 37 37 37 37 39 31 27 21 19 8 17 17 16 16 15 15
10 15 19 24 30 33 31 28 26 30 31 33 34 36 36 36 38 39 38 41 45 48 50 46 47 43 35 37 36 36 41 35 32 28 21 20 20 21 17 22 25 22 19
Wind_Direction
74 64 49 37 36 36 34 28 25 16 15 20 17 37 38 38 31 19 356 345 339 335 337 331 327 329 332 330 324 320 319 315 314 305 293 287 284 282 282 281 275 270 263
54 54 52 46 46 36 33 29 24 21 19 12 8 14 23 18 14 9 1 352 344 338 336 331 329 324 327 322 316 314 314 316 312 305 296 289 283 280 278 276 274 271 267
41 57 57 53 57 49 33 28 21 18 14 28 15 9 3 11 3 359 360 357 356 349 340 333 326 325 322 323 323 318 315 313 309 301 296 287 280 275 272 271 268 269 269
34 40 41 38 58 47 29 16 21 12 17 21 11 7 3 360 0 356 353 355 352 351 347 341 341 335 330 323 320 319 314 311 305 303 297 290 286 280 276 271 269 263 260
30 40 40 47 53 41 30 15 16 16 10 7 17 9 5 358 354 353 351 348 346 344 344 342 337 329 327 320 321 318 317 316 312 312 303 295 289 287 280 274 268 261 258
41 35 42 52 47 41 25 28 21 27 14 10 4 4 355 350 342 343 349 347 347 344 341 336 334 332 326 324 321 317 315 313 310 311 307 305 299 293 280 274 266 262 257
47 29 45 72 46 28 21 26 11 4 358 358 349 346 341 341 338 338 343 343 341 341 337 335 333 330 327 324 319 313 314 316 317 317 312 305 299 294 287 272 265 260 257
31 39 27 52 27 15 4 4 354 345 347 343 349 343 333 329 330 332 336 336 336 334 334 332 332 329 326 319 317 315 316 317 319 317 312 308 301 295 287 280 265 257 252
11 59 44 1 6 359 354 343 338 340 338 338 348 346 326 327 335 331 332 332 332 330 330 328 326 323 320 316 317 317 316 314 312 308 305 303 300 296 289 282 272 258 250
6 24 19 11 4 349 338 341 335 333 333 340 334 344 343 335 334 330 325 328 329 329 328 324 324 323 319 320 319 313 312 315 315 315 311 302 301 297 288 281 273 262 251
352 5 10 359 340 340 348 340 332 331 328 325 320 337 341 336 332 331 330 330 330 326 325 324 325 318 320 321 312 310 310 316 320 318 317 309 293 288 284 279 278 269 251
74 7 345 341 358 355 347 338 330 325 316 312 344 347 343 341 338 340 337 332 332 328 326 320 318 317 322 321 315 313 317 319 321 320 322 319 310 299 288 285 258 265 255
177 317 23 21 12 358 355 346 357 5 11 308 328 342 354 346 342 340 334 333 333 326 315 318 319 324 327 325 324 322 320 319 320 318 321 323 315 315 307 301 288 254 248
130 65 46 22 7 10 6 9 40 45 19 15 358 357 351 345 342 338 332 334 332 319 315 326 329 330 330 327 324 322 322 321 318 320 320 323 317 313 302 295 290 276 262
100 75 39 16 11 13 12 7 7 343 4 354 12 357 345 339 337 338 336 338 332 329 334 335 334 333 330 327 324 324 323 324 323 321 322 323 320 313 305 293 280 275 259
100 67 31 11 8 10 10 7 4 357 352 1 356 347 342 340 346 343 342 342 343 340 338 340 336 335 333 330 327 324 323 321 322 321 323 325 329 321 311 299 291 286 262
88 60 29 14 9 0 3 9 3 356 358 359 351 344 350 352 353 352 350 350 346 343 341 341 339 335 331 327 327 326 324 322 327 327 331 332 332 328 324 311 308 299 277
78 46 21 10 4 358 3 5 1 2 3 358 359 355 357 355 352 353 352 349 346 343 342 343 342 339 334 331 329 329 329 332 335 335 335 333 331 323 322 315 328 318 282
62 34 18 10 4 6 4 0 0 5 1 1 359 357 354 351 351 351 350 348 346 343 344 344 346 340 337 336 335 333 330 330 335 338 334 333 331 328 312 324 324 341 240
52 38 23 14 8 7 4 2 2 2 1 359 357 354 350 349 350 350 348 347 346 344 344 348 346 344 342 339 335 330 330 329 330 337 335 338 342 353 355 326 328 333 279
51 28 16 8 6 6 7 3 359 360 359 357 354 352 348 349 348 349 347 348 347 347 349 350 350 349 344 344 342 343 344 343 341 339 337 338 358 347 354 354 357 18 45
36 19 11 4 8 8 7 4 357 358 357 355 351 350 347 349 350 348 347 350 349 349 352 353 354 350 349 354 355 357 1 359 356 349 350 345 357 350 343 7 18 30 58
29 16 5 359 3 7 5 2 356 356 356 353 350 350 349 350 350 347 351 352 351 351 354 358 355 353 359 2 3 3 2 8 4 2 3 12 8 21 6 72 53 47 49
25 15 6 358 360 3 2 360 355 355 355 353 350 351 351 352 350 348 354 355 353 353 357 360 357 360 6 10 9 6 8 8 10 9 12 14 29 42 53 42 17 8 16
9 357 353 353 356 359 359 355 352 355 355 351 352 352 353 353 350 350 355 356 353 356 1 2 1 6 14 12 12 13 9 10 12 14 19 21 38 39 33 27 34 36 35
347 341 343 344 347 352 355 351 349 354 351 350 353 355 355 353 350 351 356 357 355 359 3 5 8 12 19 15 14 17 19 19 17 24 33 51 49 33 38 34 40 38 34
Height
5916 5915 5914 5912 5912 5911 5908 5906 5904 5902 5901 5899 5896 5893 5891 5890 5888 5886 5885 5882 5878 5875 5872 5871 5870 5867 5865 5862 5860 5858 5856 5854 5852 5850 5849 5849 5848 5847 5846 5846 5846 5846 5846
5919 5917 5915 5914 5914 5912 5910 5908 5906 5903 5900 5897 5894 5894 5891 5890 5889 5887 5885 5881 5879 5876 5872 5870 5867 5864 5862 5859 5856 5853 5852 5849 5848 5846 5844 5843 5842 5840 5840 5840 5839 5838 5839
5921 5918 5917 5916 5914 5913 5913 5912 5909 5907 5903 5896 5894 5891 5890 5889 5888 5885 5883 5880 5876 5873 5870 5868 5864 5860 5856 5853 5851 5849 5846 5844 5843 5841 5838 5836 5834 5832 5832 5831 5830 5830 5831
5923 5921 5919 5918 5916 5916 5914 5912 5912 5907 5903 5898 5896 5891 5889 5886 5884 5882 5879 5876 5874 5870 5867 5862 5857 5854 5851 5848 5845 5842 5840 5838 5835 5832 5830 5828 5826 5824 5823 5822 5822 5822 5822
5926 5924 5921 5920 5919 5918 5917 5914 5911 5908 5903 5900 5897 5894 5890 5888 5884 5880 5877 5874 5871 5868 5863 5860 5856 5853 5848 5843 5839 5835 5830 5826 5823 5820 5818 5817 5817 5816 5815 5813 5814 5813 5814
5928 5926 5923 5921 5922 5921 5919 5916 5912 5907 5903 5899 5897 5894 5891 5886 5884 5880 5876 5873 5870 5867 5862 5858 5853 5847 5843 5839 5832 5827 5823 5817 5814 5810 5807 5804 5802 5802 5803 5803 5803 5802 5803
5929 5928 5925 5924 5923 5921 5918 5915 5910 5905 5903 5901 5896 5892 5889 5885 5880 5876 5875 5872 5869 5864 5859 5853 5849 5844 5838 5832 5826 5821 5814 5809 5803 5798 5794 5792 5789 5787 5788 5790 5790 5793 5793
5929 5928 5925 5924 5923 5920 5917 5914 5910 5906 5903 5900 5896 5891 5888 5883 5878 5876 5874 5871 5867 5861 5856 5850 5843 5838 5833 5827 5819 5812 5807 5801 5796 5792 5786 5781 5777 5776 5775 5776 5777 5779 5782
5930 5929 5927 5925 5923 5920 5916 5913 5909 5906 5902 5898 5893 5890 5887 5884 5880 5873 5869 5866 5863 5858 5852 5846 5840 5835 5830 5823 5815 5808 5802 5796 5791 5786 5781 5775 5769 5766 5764 5763 5765 5766 5768
5930 5929 5928 5926 5924 5920 5916 5912 5909 5905 5901 5896 5891 5889 5887 5883 5880 5877 5868 5862 5858 5854 5848 5843 5838 5831 5823 5817 5811 5803 5796 5791 5785 5780 5773 5767 5763 5758 5755 5753 5754 5755 5756
5930 5931 5930 5927 5924 5920 5916 5912 5907 5904 5899 5893 5890 5889 5885 5881 5878 5873 5868 5861 5855 5850 5844 5838 5831 5824 5818 5811 5804 5798 5792 5785 5779 5773 5767 5760 5754 5749 5746 5743 5742 5744 5746
5932 5932 5930 5927 5924 5920 5917 5912 5907 5899 5895 5891 5891 5889 5886 5881 5876 5870 5863 5856 5853 5846 5839 5834 5827 5819 5812 5806 5799 5792 5785 5778 5772 5765 5758 5751 5744 5737 5733 5729 5728 5729 5732
5934 5932 5931 5928 5925 5921 5917 5911 5902 5894 5889 5890 5890 5888 5884 5878 5873 5867 5861 5854 5848 5841 5835 5830 5821 5813 5805 5797 5790 5784 5777 5770 5763 5756 5749 5742 5734 5726 5722 5717 5714 5713 5716
5934 5933 5931 5928 5926 5923 5920 5912 5906 5901 5897 5894 5892 5886 5881 5876 5870 5865 5860 5851 5843 5837 5830 5823 5814 5805 5797 5790 5783 5776 5769 5762 5755 5748 5740 5732 5724 5718 5712 5707 5705 5704 5703
5934 5934 5931 5928 5927 5925 5922 5917 5913 5905 5901 5898 5890 5886 5880 5875 5870 5863 5855 5848 5839 5831 5823 5815 5806 5797 5790 5782 5775 5768 5760 5753 5746 5738 5731 5722 5714 5706 5700 5696 5694 5693 5693
5935 5933 5932 5929 5926 5923 5920 5916 5911 5905 5900 5895 5890 5886 5880 5873 5866 5859 5852 5843 5833 5825 5817 5807 5799 5791 5783 5776 5768 5760 5752 5744 5737 5730 5722 5713 5703 5695 5690 5687 5685 5684 5684
5934 5934 5932 5929 5924 5922 5919 5914 5909 5903 5898 5893 5888 5882 5875 5868 5860 5853 5845 5836 5827 5819 5810 5801 5792 5785 5777 5767 5758 5750 5743 5736 5728 5719 5711 5703 5695 5689 5685 5683 5681 5678 5676
5934 5934 5932 5928 5925 5921 5916 5911 5907 5902 5895 5890 5883 5876 5869 5861 5856 5849 5839 5830 5821 5813 5804 5795 5786 5778 5769 5760 5751 5741 5734 5727 5720 5710 5703 5696 5690 5685 5682 5679 5676 5673 5670
5934 5933 5930 5927 5924 5919 5914 5910 5904 5898 5892 5886 5879 5872 5866 5860 5853 5845 5836 5827 5819 5810 5800 5791 5781 5773 5762 5751 5741 5732 5725 5718 5711 5704 5697 5691 5686 5680 5677 5675 5673 5669 5667
5933 5931 5931 5927 5923 5918 5912 5907 5900 5895 5890 5886 5879 5872 5865 5859 5850 5841 5833 5825 5817 5808 5798 5787 5777 5767 5756 5745 5735 5724 5716 5710 5705 5699 5693 5689 5683 5677 5673 5672 5670 5667 5665
5932 5931 5929 5926 5921 5916 5910 5905 5899 5895 5890 5885 5879 5872 5864 5857 5848 5840 5832 5824 5815 5805 5795 5785 5774 5762 5751 5740 5729 5721 5713 5706 5701 5696 5690 5686 5682 5678 5674 5670 5667 5665 5664
5932 5930 5928 5925 5920 5915 5909 5905 5900 5895 5890 5885 5878 5871 5864 5856 5847 5839 5831 5823 5813 5803 5793 5782 5771 5760 5747 5735 5727 5721 5713 5708 5701 5693 5688 5685 5681 5677 5673 5670 5668 5666 5665
5931 5929 5927 5924 5919 5914 5909 5905 5900 5895 5889 5885 5878 5871 5863 5855 5846 5838 5830 5822 5813 5803 5792 5781 5770 5758 5745 5737 5728 5720 5713 5706 5698 5692 5688 5684 5679 5676 5673 5671 5669 5668 5666
5929 5928 5926 5923 5919 5913 5909 5904 5900 5894 5889 5884 5878 5870 5862 5854 5846 5837 5830 5822 5813 5803 5792 5781 5771 5758 5747 5738 5730 5721 5711 5703 5698 5693 5689 5686 5683 5680 5677 5675 5671 5669 5667
5928 5927 5925 5923 5918 5913 5909 5904 5900 5894 5889 5884 5877 5870 5862 5854 5845 5839 5831 5823 5814 5803 5792 5782 5772 5759 5750 5742 5734 5725 5719 5711 5705 5698 5693 5689 5686 5682 5679 5676 5673 5670 5667
5927 5926 5924 5921 5917 5912 5908 5904 5899 5893 5889 5884 5878 5870 5862 5855 5847 5840 5833 5824 5815 5805 5794 5785 5774 5763 5755 5748 5740 5732 5724 5715 5708 5703 5697 5692 5689 5685 5682 5678 5674 5672 5670